Theta_e
321 322 322 322 321 320 320 322 322 322 322 322 322 322 322 321 321 321 320 319 318 317 317 318 318 319 320 320 321 322 322 322 323 325 325 325 326 326 326 327 327 325 325 328 329 329 330 332 332 330 329 329 329 329 329 329 330 329 328 330 331 331 331
321 321 320 321 320 320 321 321 321 321 321 321 321 320 319 319 319 318 317 316 316 315 314 314 315 316 318 319 319 320 321 321 321 322 323 322 322 323 324 325 326 325 325 327 328 326 326 328 330 331 330 328 328 327 328 328 330 329 330 330 331 330 330
321 319 319 321 320 320 320 320 320 320 320 320 319 317 317 318 317 317 316 315 315 315 315 315 315 316 317 317 318 318 319 319 319 320 321 321 320 320 321 322 322 323 325 326 326 325 325 326 327 329 328 329 330 327 325 325 327 328 328 329 329 328 329
321 319 319 321 320 321 320 319 319 319 319 318 317 317 317 317 317 317 316 315 315 315 316 317 316 317 317 317 317 317 317 317 317 318 318 318 318 318 318 320 320 320 321 322 322 322 322 323 324 326 326 327 329 327 324 322 321 323 323 325 327 326 327
321 320 321 321 320 321 320 319 319 320 319 317 317 317 318 318 318 317 317 316 316 316 316 316 316 317 317 317 317 317 317 317 317 317 317 317 317 316 315 316 317 318 318 319 320 320 320 320 321 321 320 320 321 322 323 323 323 324 324 325 326 326 327
321 320 321 322 321 320 320 319 319 319 319 318 317 317 318 318 319 318 318 318 316 316 315 316 316 317 317 317 317 317 316 317 316 316 316 316 316 316 316 315 315 316 316 316 316 316 316 317 318 318 318 317 317 318 318 320 322 322 322 323 322 323 325
321 320 320 321 321 320 320 320 319 319 320 319 318 318 318 318 319 318 319 318 317 316 316 316 316 316 317 316 316 317 317 316 317 316 316 316 316 316 316 315 314 315 315 314 315 315 315 315 315 315 316 316 316 316 316 316 316 317 318 320 320 320 322
322 321 319 320 321 320 319 320 320 319 319 319 319 319 319 318 319 319 319 318 317 316 316 316 316 316 316 316 315 316 317 316 316 316 315 315 315 315 315 315 314 314 314 314 314 314 314 315 314 314 314 314 314 315 316 316 315 315 316 317 318 319 319
322 321 319 318 320 320 319 320 320 318 318 319 319 319 320 319 319 319 319 319 318 317 316 316 316 316 315 316 316 316 316 315 315 316 316 316 315 315 315 314 315 314 312 313 313 313 314 314 314 314 314 314 314 314 314 315 315 316 317 316 317 318 318
322 322 320 318 320 321 320 320 320 319 318 318 319 320 320 318 319 320 319 319 318 317 316 316 316 316 315 316 316 316 316 315 316 316 316 316 315 315 315 314 315 314 312 312 313 312 313 313 313 314 314 314 314 313 313 313 314 315 316 316 316 316 316
324 323 322 320 320 322 321 320 320 320 319 319 319 320 321 319 320 320 319 319 319 318 316 315 315 315 315 315 316 316 316 315 315 315 315 315 315 315 314 313 314 314 312 312 312 312 312 313 313 313 313 314 314 314 314 314 314 314 314 314 315 315 316
325 324 322 321 322 323 322 321 320 320 320 319 319 321 321 319 320 320 319 319 319 318 317 316 316 315 315 315 315 315 315 314 315 315 315 315 314 314 314 313 313 313 312 311 312 313 313 312 312 312 311 312 313 314 315 314 314 314 313 314 314 314 314
325 324 323 322 322 323 323 322 321 320 321 320 320 321 321 319 320 320 319 319 320 319 317 316 316 315 315 315 314 315 314 314 315 315 314 314 313 313 314 312 312 312 311 310 310 312 311 311 312 311 311 311 311 312 313 314 313 314 313 313 313 313 313
324 324 323 323 323 323 323 323 322 321 322 321 320 321 321 319 320 320 320 320 320 319 318 316 316 315 315 316 315 315 315 314 314 314 314 314 312 312 312 312 311 311 310 310 310 310 310 310 311 311 311 311 311 311 312 312 313 313 313 312 313 313 313
323 322 323 322 323 323 322 323 324 322 322 322 321 321 321 320 320 320 320 320 320 320 318 317 316 315 315 315 315 316 315 314 313 314 314 313 312 312 312 310 310 311 310 310 309 309 309 309 309 309 310 310 310 311 310 311 311 312 312 311 311 311 312
322 322 322 322 322 322 321 321 323 323 323 323 323 322 321 320 320 320 320 320 320 320 319 318 317 316 315 315 315 315 315 314 313 314 313 313 312 312 311 311 311 311 310 310 310 309 309 309 309 309 309 309 309 310 310 310 311 311 311 311 311 311 311
323 322 323 323 323 322 321 320 321 323 323 323 323 323 322 320 320 321 320 320 321 320 319 319 318 317 315 315 315 315 315 313 313 313 313 312 311 311 311 311 311 310 310 309 309 309 309 309 309 308 308 308 308 309 310 310 311 311 312 311 311 311 310
324 324 324 324 324 323 322 322 322 322 322 323 324 323 323 321 320 321 321 321 320 320 320 319 318 317 316 315 315 315 314 314 313 313 313 312 311 311 310 310 310 309 309 308 308 309 309 308 308 307 307 307 307 307 308 308 309 310 311 311 311 310 310
324 325 325 325 325 323 323 323 323 322 322 323 323 323 323 322 321 321 321 321 321 320 320 319 318 317 316 315 315 315 314 314 313 313 312 311 310 310 310 310 309 308 308 307 307 308 307 307 307 307 307 307 307 307 307 307 308 308 308 309 309 309 310
323 325 325 324 324 324 323 324 324 323 323 323 323 323 323 323 322 322 322 321 321 321 320 319 318 317 317 316 315 315 315 314 313 312 311 311 310 310 309 308 308 307 307 306 306 306 306 306 306 306 306 307 307 307 307 308 308 308 308 308 308 309 309
320 321 322 322 323 323 324 323 323 322 323 324 324 323 323 323 322 322 322 321 321 321 320 319 318 317 317 316 315 315 314 314 313 312 311 310 309 309 308 307 306 306 305 305 305 304 302 301 301 302 302 303 304 305 305 306 306 307 307 308 307 308 308
314 315 317 319 321 322 323 322 322 321 321 323 323 323 323 323 322 322 322 321 321 321 320 319 318 318 317 316 316 315 314 313 312 312 311 310 309 308 307 305 305 305 304 303 302 300 297 295 295 296 297 299 300 302 303 304 304 305 306 307 307 307 307
310 311 313 314 316 318 320 321 322 322 321 322 322 322 322 322 322 323 322 321 321 321 319 318 318 317 317 316 315 314 314 313 312 311 311 309 308 307 306 305 305 304 303 301 300 299 298 297 297 296 296 297 298 299 301 302 303 304 305 305 305 306 306
309 310 310 311 312 313 315 317 320 321 321 320 321 321 322 322 322 322 322 321 320 320 318 318 318 317 316 315 314 314 313 312 311 310 309 307 306 306 305 305 304 304 302 302 301 301 301 300 299 298 297 297 297 297 298 299 300 301 303 303 304 304 305
309 309 309 310 311 311 312 313 316 319 319 320 320 320 320 321 321 321 321 320 320 319 318 317 317 316 315 313 313 313 312 310 309 308 306 306 305 305 304 304 304 303 302 302 302 301 301 300 299 299 299 299 299 298 298 297 298 298 299 301 302 302 303
309 309 310 310 311 312 312 312 313 315 317 318 319 319 319 320 320 320 320 320 320 318 318 317 317 315 313 312 311 311 310 308 307 306 305 305 304 304 303 303 303 302 302 301 301 301 301 302 302 302 301 301 301 300 300 299 298 298 298 299 299 300 301
309 309 310 310 311 312 312 312 313 313 315 315 317 317 318 319 319 319 319 320 319 319 318 317 316 314 312 310 310 309 308 306 305 305 304 304 304 303 303 303 302 301 301 301 301 301 302 302 302 302 302 302 302 301 301 301 301 300 299 299 299 299 300
309 309 309 310 310 311 311 312 313 313 314 315 315 316 316 317 318 318 318 319 319 318 317 316 315 313 311 309 308 307 305 304 303 303 303 303 303 303 302 302 301 301 301 301 301 301 301 301 301 301 301 300 300 301 301 301 301 301 300 300 299 300 300
310 310 310 310 310 310 311 312 313 313 313 313 314 315 315 316 317 317 318 319 318 316 314 313 312 311 310 308 306 305 303 303 303 303 303 303 303 302 302 301 301 301 301 301 301 300 299 299 299 299 299 299 299 299 300 300 300 300 300 300 299 300 300
310 310 311 310 310 311 311 312 313 313 313 313 313 314 314 315 316 316 316 317 315 313 311 309 309 309 308 306 303 302 303 303 303 302 303 302 302 301 301 301 300 301 301 300 299 299 298 298 298 298 298 298 298 298 299 299 299 299 298 298 298 298 298
309 310 310 310 311 311 311 312 312 313 313 313 313 313 313 313 314 315 315 315 313 310 307 306 306 305 303 301 301 301 302 303 302 302 302 301 301 300 300 300 300 299 299 299 298 298 298 297 297 296 297 297 297 297 297 298 298 298 298 298 297 297 297
309 309 310 310 310 311 311 312 312 313 314 313 313 313 312 312 314 314 313 311 309 308 305 302 300 300 298 298 299 300 300 300 300 299 299 299 299 299 299 299 298 298 298 298 298 298 297 295 295 295 296 296 296 296 296 296 296 297 297 297 297 297 297
309 310 310 310 311 311 311 312 312 312 313 312 312 312 312 313 312 310 308 307 306 305 302 298 296 296 296 297 298 298 297 297 297 297 298 297 297 297 297 297 298 298 298 298 297 296 295 294 293 294 294 295 295 294 294 294 294 294 294 294 294 295 295
309 310 310 310 310 311 311 311 311 311 311 311 312 312 312 311 309 305 304 304 303 300 298 295 295 296 296 295 295 295 295 296 296 296 296 296 295 296 296 297 298 298 297 296 295 294 293 293 292 292 292 293 293 293 293 292 292 292 292 292 292 292 293
309 309 310 310 310 310 310 310 310 311 311 311 312 312 310 307 305 303 301 300 299 296 295 296 295 295 294 294 293 292 293 294 294 293 293 294 295 296 297 298 298 298 296 295 294 293 292 292 291 290 291 291 291 291 290 290 290 290 290 290 291 291 292
309 309 309 309 309 309 309 309 309 310 311 311 311 311 308 305 304 302 300 299 297 296 295 295 294 293 293 293 292 291 291 291 290 291 292 295 296 297 297 298 298 297 296 295 294 293 292 291 290 290 290 290 290 289 289 289 289 289 290 290 290 291 291
308 308 308 308 308 308 308 308 309 310 310 310 310 308 306 303 302 301 299 298 297 296 295 293 293 292 292 291 291 291 291 291 292 293 294 295 296 297 297 297 296 295 294 293 292 292 291 290 290 290 290 290 290 290 290 290 290 290 290 290 290 291 291
Wind_Speed
8 9 8 8 7 7 6 5 5 4 4 4 3 4 3 4 4 4 4 4 4 4 4 5 6 5 5 4 4 4 4 4 3 2 2 2 2 3 2 1 3 1 1 2 3 3 3 2 3 2 4 6 6 8 11 10 7 8 8 6 7 10 10
9 10 9 8 8 7 7 6 5 5 4 4 3 4 4 5 5 4 4 4 5 5 5 6 6 6 6 5 5 5 4 4 4 4 3 3 3 4 3 2 2 1 1 1 1 1 1 2 2 2 2 4 6 9 10 9 8 9 9 10 11 11 11
11 11 10 9 8 8 7 6 5 5 5 4 4 5 5 5 5 5 4 4 5 5 6 6 6 6 6 6 6 6 5 5 4 4 4 4 4 4 4 4 2 1 1 3 4 2 3 5 4 3 5 4 3 7 11 11 11 11 13 15 17 16 13
12 12 11 10 9 8 8 7 6 6 5 5 5 5 5 5 5 4 4 4 4 4 5 5 5 5 5 5 5 5 6 5 5 4 4 4 4 3 3 4 4 3 3 1 1 2 2 3 3 4 6 7 6 6 8 11 12 13 16 18 20 20 18
13 13 12 11 10 9 9 8 7 7 6 6 6 5 5 5 4 4 3 3 4 4 4 4 4 4 4 5 5 5 6 6 5 5 5 4 4 4 4 4 4 3 3 3 3 3 3 4 5 4 5 5 5 5 6 8 9 10 13 14 16 18 18
13 13 12 12 11 10 9 8 8 7 7 7 7 6 6 5 4 4 3 3 3 3 3 3 3 3 3 4 5 5 6 6 6 6 6 6 5 5 4 3 3 3 3 3 3 2 2 4 5 4 6 7 6 6 7 7 9 10 12 13 14 14 15
14 13 12 12 12 10 10 9 8 8 8 8 8 7 7 7 5 4 3 3 3 3 2 2 2 2 2 3 4 5 5 5 5 6 6 5 5 5 5 4 4 4 4 3 2 2 2 3 4 5 6 7 6 7 8 8 8 8 8 10 11 11 11
13 13 12 12 12 11 10 10 9 8 7 8 8 8 9 8 6 6 5 4 4 4 3 2 2 2 1 2 3 4 4 4 4 5 5 5 5 5 5 4 4 4 4 4 3 3 3 3 3 4 5 5 5 5 6 6 6 5 5 6 6 7 8
13 13 13 12 12 12 11 11 10 9 8 8 9 9 10 9 8 7 7 6 6 5 4 3 2 2 2 2 3 3 3 3 3 3 3 4 4 4 4 4 3 4 4 4 4 4 4 4 3 3 3 4 4 4 4 5 5 4 2 3 4 4 5
14 13 13 12 12 12 12 11 11 11 10 9 9 11 11 10 10 9 8 8 7 6 6 5 4 3 3 3 3 3 3 3 3 2 2 2 2 2 3 3 2 3 4 4 4 4 4 4 4 3 3 4 3 4 4 4 5 5 6 7 7 6 5
14 13 12 12 12 12 12 12 11 12 12 11 11 12 12 12 11 11 10 9 9 8 7 6 5 5 4 4 4 4 4 4 3 3 2 2 1 1 1 2 2 2 3 3 3 4 4 4 5 5 5 5 4 4 5 4 5 7 9 9 9 9 8
14 14 13 13 12 12 13 12 12 12 12 13 13 14 14 14 13 13 12 11 10 10 9 8 7 7 6 5 5 5 5 4 4 4 3 2 2 1 1 0 1 1 2 3 3 3 3 4 5 5 6 6 6 6 6 6 5 6 9 9 10 12 12
14 14 13 13 13 13 13 13 13 12 13 13 14 15 16 15 15 15 14 13 12 12 11 10 10 9 8 7 6 6 6 5 5 4 4 3 2 2 2 1 1 1 2 3 3 3 4 4 5 5 6 6 6 6 7 8 7 8 10 10 12 13 13
13 13 13 13 14 14 13 13 13 13 13 13 14 15 16 16 16 16 16 15 15 14 14 13 12 11 10 9 8 7 7 7 6 6 6 5 4 3 3 2 2 2 2 3 4 4 5 5 6 6 7 6 7 7 7 9 9 9 11 10 11 12 12
12 12 13 14 14 14 14 13 12 13 14 14 15 16 16 17 17 17 17 17 16 16 16 15 14 13 12 11 10 9 8 8 8 7 7 6 6 5 4 3 3 2 3 4 4 5 6 6 6 7 7 7 8 8 8 9 10 11 12 12 12 13 13
13 14 14 14 15 15 16 15 13 13 14 14 15 16 17 17 18 18 18 18 18 18 17 16 16 14 13 13 12 11 11 10 10 9 8 8 7 7 5 5 4 3 4 4 5 6 6 6 6 7 7 8 9 10 10 10 11 12 13 13 13 13 13
15 16 14 14 14 15 17 17 16 15 15 15 16 16 17 18 18 18 19 19 18 18 17 17 16 16 15 14 14 13 13 12 12 11 10 9 8 7 6 6 5 4 4 4 5 6 6 6 6 7 9 9 10 10 10 10 11 12 13 14 14 13 14
13 14 14 14 14 14 15 16 17 17 18 19 19 18 18 18 19 20 20 19 19 18 18 17 17 17 16 15 15 15 14 14 13 13 12 11 9 8 7 6 5 5 4 5 5 5 6 6 7 8 9 10 10 11 11 11 12 13 14 16 16 15 15
12 13 13 14 14 16 19 20 19 19 19 19 19 19 19 19 19 21 21 20 20 19 18 18 18 18 17 17 17 17 16 15 14 13 12 11 10 9 8 7 6 5 5 5 5 6 6 7 8 9 10 11 11 12 13 13 13 14 15 16 17 17 16
9 9 10 12 14 18 20 20 20 19 19 20 20 19 19 18 19 20 21 21 21 20 20 20 20 19 18 18 18 17 16 15 14 13 12 11 10 10 9 7 7 6 6 6 5 5 5 7 8 9 10 11 12 12 13 14 14 15 15 16 16 16 16
4 4 6 10 14 16 16 16 18 19 18 18 19 19 18 18 19 20 21 22 23 22 22 21 20 20 19 19 18 17 15 15 13 12 12 11 10 9 9 8 7 6 6 6 6 6 6 8 10 10 11 11 12 13 14 15 15 15 16 16 16 16 16
5 4 5 7 9 11 12 14 17 18 18 18 18 18 18 18 19 20 21 21 21 21 21 20 20 22 21 20 18 16 15 15 14 12 12 11 10 9 8 8 7 7 8 10 11 11 12 13 13 13 12 12 12 13 14 15 16 16 16 16 16 16 16
7 7 7 8 8 9 9 10 12 13 15 17 18 18 18 18 19 20 21 20 20 20 21 21 23 24 24 21 17 15 15 14 13 13 11 10 10 9 8 8 7 9 11 13 14 14 13 12 13 14 15 14 14 14 14 15 15 16 16 17 16 16 16
7 8 8 9 10 10 10 10 9 10 11 13 15 16 16 17 18 20 22 22 22 23 24 24 24 25 26 22 16 14 14 13 12 12 10 10 9 8 8 8 7 8 10 11 12 13 13 14 15 16 17 16 16 16 17 17 17 17 17 17 17 17 17
8 9 9 9 10 10 11 11 11 11 11 12 14 14 15 16 17 19 20 20 20 22 24 25 25 25 27 25 18 14 13 12 12 11 10 9 8 8 7 7 7 7 9 10 12 13 14 16 17 18 18 17 17 17 18 20 20 20 19 19 19 18 18
9 9 9 9 10 10 11 12 12 13 13 14 14 14 16 17 17 18 18 17 18 20 22 25 26 25 25 26 22 16 12 12 12 11 10 10 9 8 7 7 8 8 9 11 13 13 13 14 15 16 16 16 18 19 20 20 21 22 22 21 21 21 20
9 9 9 10 10 11 11 12 13 13 14 14 15 15 17 17 17 18 18 18 19 21 23 25 26 26 26 26 25 19 12 11 11 10 9 9 8 8 8 8 9 10 10 10 11 12 11 12 13 13 14 15 17 18 20 21 21 22 24 25 25 24 22
9 10 10 10 11 12 12 13 13 13 14 14 15 16 16 17 18 18 18 19 19 20 22 24 25 27 27 27 26 20 11 10 10 8 8 9 8 8 9 9 10 11 11 11 12 12 12 12 13 14 14 16 17 18 19 20 20 21 23 26 28 26 23
10 10 11 11 12 12 13 13 13 13 14 15 15 16 15 16 16 16 17 19 17 16 19 22 24 26 27 28 26 18 10 9 8 7 8 8 8 9 10 10 10 11 10 10 13 15 15 15 15 15 16 17 17 18 19 19 20 22 24 26 28 28 28
11 11 11 12 13 13 13 13 13 13 14 15 15 16 16 15 15 16 17 16 14 16 20 21 23 25 27 26 23 15 9 8 8 8 8 8 8 9 10 11 11 11 11 12 15 17 17 17 16 15 16 17 18 19 19 19 20 22 23 25 27 29 31
12 12 12 12 13 13 13 13 13 13 13 14 15 15 15 15 15 14 14 12 14 18 21 22 23 25 24 23 19 12 8 8 7 7 7 7 8 9 11 12 13 13 13 15 17 18 18 18 15 14 16 17 18 20 19 19 19 20 21 23 25 27 30
13 13 13 13 13 13 13 13 13 13 13 14 15 15 15 16 13 9 8 11 14 17 21 23 22 22 21 19 16 10 5 5 5 5 6 7 8 9 10 12 15 17 18 18 19 19 19 18 16 14 16 18 20 21 20 20 21 21 21 22 23 24 26
14 13 14 14 13 13 13 13 13 13 14 14 14 14 12 10 6 7 9 12 14 17 23 24 21 19 18 16 14 9 4 2 3 4 5 6 8 9 11 12 14 15 14 14 16 17 18 18 16 15 16 18 21 22 22 22 22 23 23 23 23 23 24
15 15 14 14 14 13 13 13 13 14 14 15 14 10 3 4 9 11 10 12 15 20 25 24 19 16 13 11 11 8 4 1 2 4 5 7 9 11 12 11 11 10 7 8 12 13 14 16 17 17 18 20 23 26 26 26 25 25 26 25 24 24 24
16 15 14 14 14 14 14 14 14 14 14 14 11 5 5 9 11 12 13 15 19 22 22 19 15 12 10 8 7 6 4 3 5 6 7 9 10 11 12 11 10 9 8 8 11 14 16 19 21 22 23 24 27 28 29 28 27 26 25 25 24 24 23
17 16 15 15 16 16 15 15 15 14 13 11 9 7 7 10 12 15 16 16 18 19 17 14 13 11 9 7 6 5 4 5 7 7 8 10 11 12 12 11 10 11 12 14 18 21 23 24 24 23 23 23 24 24 25 26 25 25 24 24 23 23 22
18 17 17 18 18 17 17 17 15 13 10 8 9 9 10 13 15 16 16 16 16 16 15 14 12 9 7 6 4 4 4 6 8 8 8 10 11 12 12 12 14 16 18 21 23 24 24 22 21 20 19 19 20 22 23 23 23 23 23 23 23 23 22
Wind_Direction
153 144 142 141 136 130 132 131 126 124 115 103 93 90 87 79 72 65 54 44 39 42 50 57 52 48 55 52 43 34 28 28 22 41 84 63 36 54 73 24 11 43 114 43 30 13 354 331 335 328 295 288 288 275 262 268 287 286 282 280 273 273 272
151 149 152 147 144 140 140 140 134 133 126 115 106 100 101 96 92 83 66 52 38 33 42 55 57 54 56 53 52 51 47 48 38 25 27 34 35 31 21 357 8 53 151 127 71 31 158 240 301 344 329 323 308 284 275 273 262 252 256 260 264 268 273
156 159 160 152 153 153 150 149 145 142 137 129 121 115 114 109 103 91 75 60 43 37 42 53 57 56 58 56 55 56 54 56 55 46 37 39 42 29 11 355 343 339 211 181 190 213 195 208 237 250 237 232 268 284 288 287 276 265 259 257 260 265 271
162 164 163 161 166 166 162 161 160 154 146 142 138 134 128 122 115 101 87 72 57 47 47 50 52 56 61 61 59 59 58 57 57 56 51 46 43 40 26 14 15 13 351 328 324 345 326 270 275 261 235 219 211 244 270 276 280 281 274 267 265 267 267
169 169 168 169 173 173 173 174 170 163 158 156 156 154 149 142 132 120 106 89 73 57 49 48 51 57 61 62 62 61 60 59 57 54 55 47 41 43 39 27 27 34 18 3 4 351 326 319 315 301 289 279 256 255 254 239 244 257 260 260 261 259 257
176 177 176 175 177 179 180 181 179 174 170 169 171 171 167 164 156 145 137 116 93 77 67 61 61 63 66 67 66 65 63 62 57 57 56 47 39 39 41 37 30 35 47 30 7 346 316 308 302 293 299 305 302 296 282 248 239 240 234 236 245 248 246
182 183 184 182 183 186 185 185 189 187 180 179 181 181 177 176 175 167 160 145 129 119 103 92 84 79 74 76 74 69 66 65 61 60 58 52 44 37 32 34 36 34 35 27 4 344 336 319 312 318 318 309 300 291 285 273 263 254 235 227 232 241 240
189 189 191 190 187 191 190 187 191 195 190 186 186 185 182 183 184 180 176 168 161 156 144 133 120 105 93 87 85 79 72 68 65 62 59 55 49 41 35 29 32 36 25 14 7 353 352 353 337 333 329 317 303 291 288 285 279 273 261 247 238 244 244
196 196 197 197 193 193 194 190 192 197 196 191 189 186 183 187 189 187 187 183 177 175 169 166 165 146 141 129 115 111 103 90 83 79 72 67 54 44 37 22 21 39 24 5 6 4 358 348 331 322 315 315 316 312 310 310 305 298 297 303 285 263 263
203 204 203 203 198 194 197 196 194 195 196 196 191 187 187 191 193 192 194 192 187 188 183 182 184 175 175 171 153 149 145 138 130 115 101 86 70 53 42 22 16 38 26 8 5 2 355 340 327 315 297 290 296 306 312 315 316 318 331 335 317 302 306
206 210 211 209 205 201 201 201 200 198 197 198 194 189 190 193 195 196 198 198 194 194 192 192 192 188 193 189 175 175 167 162 166 156 146 131 105 72 52 23 8 33 25 5 353 347 342 336 327 316 306 294 279 283 297 301 303 306 314 319 310 311 322
209 213 216 216 212 210 210 210 209 206 201 200 197 193 193 195 196 198 201 202 200 198 197 197 196 193 200 198 192 195 186 184 191 177 169 168 160 163 133 39 350 20 11 343 329 323 321 320 319 314 310 304 292 286 287 285 286 292 297 300 301 307 315
215 216 219 223 222 220 221 220 219 216 209 206 203 197 196 198 198 199 202 204 202 202 201 200 198 198 202 201 203 205 196 199 208 196 188 186 182 195 195 201 242 276 334 331 321 311 306 301 300 301 301 298 292 286 281 277 278 284 287 287 290 294 299
227 225 225 229 231 229 228 228 227 226 219 215 213 207 203 204 203 202 203 205 205 204 204 203 200 199 201 201 204 206 196 201 215 209 200 201 203 204 208 228 233 223 261 304 308 302 298 290 283 282 281 282 281 278 277 277 280 286 288 287 286 288 290
240 238 235 235 237 236 236 235 232 231 227 223 221 217 214 212 209 207 207 208 208 208 207 205 201 200 202 202 201 201 198 203 213 210 205 211 211 203 208 239 245 232 255 281 289 292 297 294 288 284 281 282 284 283 280 281 285 288 289 291 291 290 288
237 239 238 237 238 240 241 241 236 233 231 229 226 223 222 222 218 214 213 212 211 211 209 207 203 201 203 203 201 201 201 205 210 207 206 213 214 205 205 221 231 235 250 266 276 284 290 288 287 290 290 287 285 283 282 280 280 282 286 289 289 289 290
231 234 236 232 233 238 241 242 240 237 233 230 229 225 225 229 226 221 220 219 216 214 212 208 204 204 205 205 205 204 204 205 207 205 206 211 211 206 207 217 228 233 241 259 272 279 284 284 287 292 293 291 287 284 281 276 273 275 280 284 285 285 288
226 226 231 228 224 227 233 233 232 234 234 230 228 226 224 227 229 228 226 224 223 220 218 215 209 205 206 207 206 207 207 207 206 205 205 206 206 206 212 221 228 234 245 261 271 278 285 290 294 294 293 293 292 292 289 283 278 276 277 280 283 285 285
235 228 231 232 226 223 228 231 228 230 235 234 232 230 227 226 230 230 227 226 229 227 224 224 218 211 208 208 207 207 208 207 205 205 205 203 203 205 209 217 226 236 243 254 265 277 286 290 291 291 292 292 292 293 290 286 283 279 276 277 279 282 281
250 244 244 246 242 233 232 235 235 232 233 235 234 233 232 229 230 230 227 227 229 226 225 226 223 217 212 209 208 207 206 206 205 204 203 201 202 204 206 213 223 230 238 252 262 269 281 290 291 290 289 288 289 290 288 286 283 280 278 277 278 280 279
276 277 267 256 252 247 242 244 247 244 241 239 236 234 233 231 228 228 229 231 230 227 224 222 218 219 218 212 207 206 204 201 201 202 201 201 202 203 206 214 222 227 236 241 240 251 276 287 288 288 288 288 288 287 286 285 285 282 280 279 279 279 280
301 292 280 267 260 258 253 247 246 247 246 245 245 242 237 232 230 230 232 236 234 227 219 216 219 225 225 214 203 200 199 197 198 199 198 201 204 205 210 218 221 221 228 233 242 261 278 281 276 274 277 281 283 283 282 281 281 281 281 281 281 282 281
291 282 280 279 276 274 267 254 245 241 239 239 242 243 239 236 235 235 235 237 236 227 219 222 228 229 222 210 198 194 194 195 197 197 196 200 202 205 214 223 227 232 243 255 266 278 284 281 275 272 272 273 274 276 279 280 279 279 280 280 281 282 282
280 278 277 275 274 274 272 268 258 247 241 237 236 237 236 237 239 239 239 240 237 227 219 222 231 229 215 202 193 191 191 190 192 194 194 197 202 210 220 228 236 246 258 270 279 288 291 286 282 280 279 277 272 269 270 272 273 276 278 279 278 279 279
281 279 277 273 272 273 271 269 261 250 244 241 239 238 234 234 237 241 243 238 229 224 220 223 230 226 212 202 196 190 187 185 186 190 193 198 206 215 224 233 240 250 260 264 269 278 283 281 280 281 281 281 278 273 269 267 266 267 269 273 276 275 274
279 277 276 273 273 272 269 268 264 257 251 245 242 240 236 234 234 238 240 231 221 226 229 228 226 218 208 203 197 186 182 185 187 190 195 200 208 218 229 241 250 256 262 264 267 270 271 275 280 283 283 281 277 274 272 267 263 261 261 264 269 270 271
277 275 275 273 272 269 266 265 262 259 257 252 247 242 239 237 236 237 238 232 226 228 228 223 219 213 206 202 196 189 185 184 183 188 197 201 212 224 234 247 256 261 266 268 269 270 271 278 284 285 285 279 273 273 273 269 265 261 258 257 258 263 268
280 280 278 273 270 266 264 263 261 259 257 255 251 248 243 240 239 239 240 236 232 227 220 216 213 209 207 205 199 192 179 173 180 194 206 212 223 232 240 250 258 263 268 270 271 269 270 276 281 284 285 281 278 277 274 270 265 260 258 257 257 260 265
277 277 275 272 269 265 263 261 260 259 258 256 255 252 247 243 240 238 239 238 230 216 208 207 205 204 205 203 197 188 172 172 191 211 218 224 234 240 247 252 256 261 266 270 274 274 274 276 280 284 285 283 282 280 276 273 269 263 260 260 259 260 264
275 273 271 269 266 264 264 262 259 259 259 258 256 253 250 247 242 239 241 236 218 200 193 193 195 198 199 196 189 181 178 188 206 222 224 232 244 249 253 252 252 260 267 273 278 280 280 281 282 284 284 283 284 282 280 278 275 272 269 267 265 264 265
278 275 272 271 269 267 265 263 261 259 258 259 259 257 254 249 245 245 243 225 201 190 182 181 189 192 189 184 177 172 189 204 215 228 231 242 253 257 261 259 257 260 264 270 275 277 279 281 283 284 283 284 285 284 283 284 283 281 279 276 275 274 272
279 277 274 272 271 270 268 266 264 261 260 262 260 257 257 253 244 235 212 189 186 186 176 173 179 179 173 171 167 162 180 205 218 241 254 263 268 268 271 274 274 272 270 269 269 270 274 276 277 279 280 283 286 285 285 287 286 286 287 285 283 282 279
276 274 274 272 269 268 267 265 264 263 263 264 261 261 264 252 207 158 156 165 173 179 173 167 167 167 164 167 170 169 168 210 247 263 271 276 280 281 280 281 284 282 276 265 259 259 265 268 272 276 277 279 282 284 287 288 286 287 292 291 286 283 281
276 274 273 271 269 268 266 264 264 264 263 262 260 261 254 146 135 130 146 164 168 169 167 161 159 162 162 164 178 187 179 221 267 271 286 288 285 285 284 285 287 286 275 253 251 258 268 275 279 280 277 276 277 278 282 286 286 285 286 285 282 279 278
274 272 270 269 268 267 267 267 266 265 264 258 248 224 123 122 124 120 132 154 159 159 160 157 153 156 161 171 194 203 199 230 258 276 294 291 284 283 285 286 285 283 282 281 283 288 292 292 292 288 281 279 279 278 279 282 283 280 278 277 275 273 272
270 267 266 268 268 268 267 266 265 264 259 242 218 186 148 138 131 121 123 136 145 149 153 156 154 159 172 190 217 239 247 264 279 290 292 287 287 288 286 283 280 279 285 292 293 294 295 295 294 290 286 284 284 283 282 281 279 275 273 271 270 269 268
268 266 267 269 269 267 263 261 261 257 242 212 190 181 165 146 135 130 129 133 138 144 152 159 166 179 195 211 243 267 279 296 306 309 301 291 289 288 287 287 287 287 291 294 295 296 298 298 297 294 292 291 290 287 283 279 276 273 270 268 266 266 265